STARLINK-32038, 60281

Orbit data source: Space-Track

STARLINK-32038, 60281 is a payload satellite owned by SpaceX/Seattle (US) in LEO that was launched on Sun, 28 Jul 2024 UTC via an FALCON 9 launch vehicle from the Air Force Eastern Test Range (AFETR). Payloads include a variety of satellites, spacecraft, and rockets equipped with specific instruments for various scientific and technological missions. These include communications satellites like Starlink; space stations such as the ISS; scientific satellites like the Hubble; Earth observation satellites from companies like Planet Labs, Umbra, and HawkEye 360; GPS; miniature CubeSats for education and research; and military/defense satellites.

Loading next visibility...
STARLINK-32038 details
Identifier
60281, 2024-132D
Orbit
LEO
Last TLE update16 hours ago
Origin
Flag of USSpaceX/Seattle (US)
ManufacturerSpaceX/Seattle
MissionOperational spacecraft
Bus & MotorSTARLINK V2M, Unknown motor
Mass730 kg wet, ~700 kg dry
Launch date (UTC)
2024-07-28 (5 months ago)
Launch vehicle
FALCON 9
Launch site
Air Force Eastern Test Range (AFETR)
Object type
Payload
Rocket body
Debris
Shape & HBRUnknown
Radar Cross SectionLarge (>1 m²)

Expand to show TLE details & history

TLE from 16 hours ago
0 STARLINK-32038
1 60281U 24132D   24355.88467907  .00002575  00000-0  99060-4 0  9994
2 60281  53.1616 313.7352 0001409  84.0111 276.1050 15.30192643 23611
Epoch: 2024-12-20T21:13Z
Definitive object data (Epoch: 2024-12-20T21:13:56.271Z)
Latitude-0.00006°
Longitude-94.69309°
Altitude476.034 km
Speed7.629 km/s
True Right ascension20h 54m 56s
True Declination0° 00' 00"
Sunlit
Object was in daylight at TLE epoch
Visualization TLE readout
Latitude38.1217°
Longitude-61.99448°
Altitude477.64 km
Speed7.632 km/s
Apparent Right ascension23h 36m 03s
Apparent Declination0° 47' 13"
Sunlit
Object is in daylight
Visualization observer readout
Local Sidereal Time12:09:29
Azimuth12.696° NNE
Elevation-48.586°
Doppler factor1
Orbital elements
Apogee altitude476.459 km
Perigee altitude474.528 km
Semi-major axis6,853.63 km
Eccentricity0.0001409
Inclination53.1616°
RAAN313.7352°
Arg. of periapsis84.0111°
True anomaly276.08895°
Mean anomaly276.105°
Eccentric anomaly276.09697°
Mean motion3.82527 °/min
BSTAR0.00009906
Orbital period94.11 mins
Loading maneuver chart data...
Loading historical data...
Loading historical data...
Loading historical data...
Loading historical data...
Loading historical data...
Loading historical data...
Loading historical data...

STARLINK-32038 Visibility forecast

Observer location: undefined°, undefined

Span
Click to sort rows by Start time (UTC) header in descending order
Start Az.
Max El. time (UTC)
Max El. Az.
Max El.
End time (UTC)
End Az.
5 mins2024-12-22 00:04:34.675Z230.703° WSW2024-12-22 00:06:34.675Z244.052° WSW44.48°2024-12-22 00:09:34.675Z49.171° ENE
4 mins2024-12-22 01:43:34.675Z307.303° NW2024-12-22 01:45:34.675Z347.797° N16.916°2024-12-22 01:47:34.675Z21.604° NNE
4 mins2024-12-22 05:01:34.675Z346.225° N2024-12-22 05:03:34.675Z23.717° NE16.293°2024-12-22 05:05:34.675Z59.178° ENE
5 mins2024-12-22 06:39:34.675Z314.976° NW2024-12-22 06:41:34.675Z351.745° N43.464°2024-12-22 06:44:34.675Z124.649° SE
|